Location: Crescent
(42.8242°N, 73.7329°W)
Time: 07:29:19
(UTC+00:00)

Vanguard 1 Rocket - Pass Details

Date: 20 February 2026
Orbit: 653 x 4214 km, 34.3° (Epoch: 12 March)

Event Time Altitude Azimuth Distance (km) Brightness Sun altitude
Rises 23:39:01 0° 279° (W) 6,187 13.5 -12.8°
Reaches altitude 10° 23:42:57 10° 271° (W) 5,604 12.9 -13.5°
Maximum altitude 23:59:03 37° 213° (SSW) 4,990 11.4 -16.4°
Drops below altitude 10° 00:20:49 10° 156° (SSE) 7,382 11.7 -20.4°
Sets 00:27:17 0° 149° (SSE) 8,270 11.9 -21.6°
